Location: *
(46.3500°N, 10.9000°E)
Time: 22:59:42
(UTC+00:00)

Vanguard 2 - Pass Details

Date: 24 April 2021
Orbit: 552 x 2938 km, 32.9° (Epoch: 12 May)

Event Time Altitude Azimuth Distance (km) Brightness Sun altitude
Rises 09:05:54 0° 215° (SW) 6,679 12.4 47.1°
Reaches altitude 10° 09:11:06 10° 206° (SSW) 5,749 12.2 47.7°
Maximum altitude 09:25:16 31° 153° (SSE) 4,063 12.8 49.5°
Drops below altitude 10° 09:37:15 10° 100° (E) 4,881 12.2 50.9°
Sets 09:41:10 0° 90° (E) 5,576 12.2 51.3°
